Location: Cheyres
(46.8153°N, 6.7877°E)
Time: 04:27:24
(UTC+00:00)

Cosmos 1328 Rocket - Pass Details

Date: 11 May 2021
Orbit: 600 x 628 km, 82.5° (Epoch: 18 June)

Event Time Altitude Azimuth Distance (km) Brightness Sun altitude
Exits shadow 20:44:39 - 199° (SSW) 2,316 6.2 -15.3°
Reaches altitude 10° 20:45:27 10° 200° (SSW) 1,996 5.9 -15.3°
Maximum altitude 20:49:50 61° 281° (W) 713 4.1 -15.8°
Drops below altitude 10° 20:54:14 10° 3° (N) 2,000 6.9 -16.3°
Sets 20:56:29 0° 7° (N) 2,907 7.7 -16.5°
